KB2SKP Weather Reports


Display with metric or nautical units.
time (UTC)temp
F
wind
direction
speed
MPH
gust
MPH
rain 1hr
in
rain 24hr
in
rain mn
in
humidity
%
barometer
mb
20180424102224 54 122 1.0 5.0 0.00 0.00 0.00 73 1024.7
20180424101224 54 135 2.0 7.0 0.00 0.00 0.00 72 1024.7
20180424100224 54 151 1.0 5.0 0.00 0.00 0.00 72 1024.7
20180424095225 54 355 2.0 5.0 0.00 0.00 0.00 72 1024.7
20180424094225 54 170 1.0 3.0 0.00 0.00 0.00 71 1024.7
20180424093225 53 143 1.0 3.0 0.00 0.00 0.00 71 1024.7
20180424092225 53 205 1.0 3.0 0.00 0.00 0.00 71 1024.7
20180424091224 53 63 3.0 6.0 0.00 0.00 0.00 70 1024.7
20180424090225 53 117 1.0 3.0 0.00 0.00 0.00 70 1025.0
20180424085225 53 315 2.0 3.0 0.00 0.00 0.00 69 1025.0
20180424084224 53 176 1.0 2.0 0.00 0.00 0.00 69 1025.3
20180424083225 53 114 1.0 2.0 0.00 0.00 0.00 69 1025.3
20180424082225 53 163 1.0 5.0 0.00 0.00 0.00 69 1025.3
20180424081224 53 114 1.0 2.0 0.00 0.00 0.00 69 1025.3
20180424080224 53 27 2.0 2.0 0.00 0.00 0.00 68 1025.7
20180424075224 53 68 1.0 5.0 0.00 0.00 0.00 68 1025.3
20180424074224 53 145 2.0 5.0 0.00 0.00 0.00 68 1025.7
20180424073224 53 97 1.0 2.0 0.00 0.00 0.00 68 1025.7
20180424072224 53 158 1.0 2.0 0.00 0.00 0.00 67 1025.7
20180424071224 53 103 1.0 2.0 0.00 0.00 0.00 67 1026.0
20180424070224 53 130 1.0 2.0 0.00 0.00 0.00 67 1025.7
20180424065224 53 94 1.0 2.0 0.00 0.00 0.00 66 1026.0
20180424064224 53 135 1.0 2.0 0.00 0.00 0.00 66 1026.0
20180424063224 53 109 2.0 3.0 0.00 0.00 0.00 66 1026.0
20180424062224 53 77 1.0 3.0 0.00 0.00 0.00 66 1026.0
20180424061224 54 93 1.0 2.0 0.00 0.00 0.00 66 1026.4
20180424060224 54 317 1.0 3.0 0.00 0.00 0.00 66 1026.4
20180424055224 54 157 2.0 5.0 0.00 0.00 0.00 66 1026.7
20180424054224 54 125 2.0 3.0 0.00 0.00 0.00 66 1026.7
20180424053224 54 135 1.0 5.0 0.00 0.00 0.00 65 1026.7
20180424052224 54 144 1.0 6.0 0.00 0.00 0.00 65 1026.8
20180424051224 54 126 2.0 5.0 0.00 0.00 0.00 65 1027.0
20180424050224 54 123 3.0 5.0 0.00 0.00 0.00 64 1027.4
20180424045224 54 140 2.0 3.0 0.00 0.00 0.00 64 1027.1
20180424044224 54 112 1.0 2.0 0.00 0.00 0.00 64 1027.4
20180424043224 54 135 2.0 3.0 0.00 0.00 0.00 64 1027.4
20180424042224 54 126 1.0 3.0 0.00 0.00 0.00 64 1027.7
20180424041223 54 107 1.0 2.0 0.00 0.00 0.00 64 1027.7
20180424040224 54 121 1.0 2.0 0.00 0.00 0.00 63 1027.7
20180424035224 54 112 1.0 3.0 0.00 0.00 0.00 63 1027.7
20180424034224 54 109 1.0 2.0 0.00 0.00 0.00 62 1027.7
20180424033224 54 127 1.0 2.0 0.00 0.00 0.00 61 1028.1
20180424032224 54 90 1.0 2.0 0.00 0.00 0.00 61 1028.1
20180424031224 54 132 1.0 2.0 0.00 0.00 0.00 60 1028.1
20180424030224 54 135 1.0 5.0 0.00 0.00 0.00 60 1028.4
20180424025224 54 111 1.0 2.0 0.00 0.00 0.00 60 1028.4
20180424024224 55 122 1.0 2.0 0.00 0.00 0.00 59 1028.4
20180424023223 55 109 1.0 2.0 0.00 0.00 0.00 59 1028.4
20180424022224 55 135 1.0 3.0 0.00 0.00 0.00 59 1028.4
20180424021224 55 123 2.0 5.0 0.00 0.00 0.00 59 1028.4
20180424020224 55 125 2.0 5.0 0.00 0.00 0.00 59 1028.4
20180424015223 55 121 2.0 3.0 0.00 0.00 0.00 59 1028.4
20180424014224 55 117 1.0 5.0 0.00 0.00 0.00 59 1028.4
20180424013223 56 118 2.0 5.0 0.00 0.00 0.00 59 1028.4
20180424012223 56 41 1.0 2.0 0.00 0.00 0.00 59 1028.4
20180424011223 56 131 1.0 2.0 0.00 0.00 0.00 58 1028.4
20180424010224 56 112 1.0 3.0 0.00 0.00 0.00 57 1028.4
20180424005224 56 123 2.0 3.0 0.00 0.00 0.00 55 1028.4
20180424004223 56 118 2.0 5.0 0.00 0.00 0.00 54 1028.4
20180424003224 57 144 2.0 6.0 0.00 0.00 0.00 54 1028.4
20180424002224 57 126 2.0 2.0 0.00 0.00 0.00 52 1028.4
20180424001223 57 73 1.0 2.0 0.00 0.00 0.00 51 1028.4
20180424000224 58 110 1.0 2.0 0.00 0.00 0.00 49 1028.4
20180423235224 58 102 2.0 2.0 0.00 0.00 0.00 47 1028.7
20180423234224 58 112 1.0 2.0 0.00 0.00 0.00 46 1028.7
20180423233224 59 113 2.0 3.0 0.00 0.00 0.00 45 1028.7
20180423232223 59 107 2.0 3.0 0.00 0.00 0.00 44 1028.7
20180423231224 59 135 2.0 2.0 0.00 0.00 0.00 43 1028.7
20180423230223 60 108 2.0 3.0 0.00 0.00 0.00 43 1028.7
20180423225224 60 101 2.0 6.0 0.00 0.00 0.00 42 1029.1
20180423224223 61 134 1.0 3.0 0.00 0.00 0.00 42 1029.1
20180423223224 61 124 1.0 3.0 0.00 0.00 0.00 41 1029.1
20180423222223 61 83 2.0 3.0 0.00 0.00 0.00 40 1029.1
20180423221224 61 117 2.0 5.0 0.00 0.00 0.00 39 1029.1
20180423220224 62 135 2.0 5.0 0.00 0.00 0.00 39 1028.7
20180423215224 62 104 2.0 5.0 0.00 0.00 0.00 38 1029.1
20180423214224 62 131 4.0 6.0 0.00 0.00 0.00 38 1029.1
20180423213224 63 113 4.0 6.0 0.00 0.00 0.00 38 1028.7
20180423212224 63 127 3.0 5.0 0.00 0.00 0.00 38 1028.7
20180423211223 63 131 2.0 5.0 0.00 0.00 0.00 38 1028.7
20180423210223 64 135 2.0 6.0 0.00 0.00 0.00 38 1028.7
20180423205224 64 101 3.0 8.0 0.00 0.00 0.00 38 1028.7
20180423204224 65 113 2.0 8.0 0.00 0.00 0.00 38 1028.4
20180423203223 66 145 2.0 6.0 0.00 0.00 0.00 38 1028.4
20180423202223 67 131 3.0 7.0 0.00 0.00 0.00 38 1028.7
20180423201223 69 122 2.0 5.0 0.00 0.00 0.00 39 1028.7
20180423200223 69 137 2.0 6.0 0.00 0.00 0.00 40 1028.7
20180423195224 69 143 3.0 5.0 0.00 0.00 0.00 39 1029.1
20180423194224 70 118 3.0 6.0 0.00 0.00 0.00 39 1029.1
20180423193224 70 98 3.0 6.0 0.00 0.00 0.00 41 1029.1
20180423192223 70 80 2.0 5.0 0.00 0.00 0.00 41 1029.1
20180423191224 69 137 3.0 5.0 0.00 0.00 0.00 42 1029.4
20180423190223 69 117 2.0 5.0 0.00 0.00 0.00 42 1029.8
20180423185224 70 155 3.0 5.0 0.00 0.00 0.00 41 1029.8
20180423184223 70 130 2.0 6.0 0.00 0.00 0.00 42 1029.8
20180423183224 71 131 3.0 5.0 0.00 0.00 0.00 41 1029.8
20180423182223 71 144 3.0 8.0 0.00 0.00 0.00 41 1029.8
20180423181223 70 118 3.0 7.0 0.00 0.00 0.00 44 1029.8
20180423180223 70 137 2.0 6.0 0.00 0.00 0.00 46 1030.1
20180423175224 69 147 3.0 5.0 0.00 0.00 0.00 45 1030.1
20180423174226 69 110 3.0 5.0 0.00 0.00 0.00 47 1030.4
20180423173224 69 145 3.0 9.0 0.00 0.00 0.00 48 1030.4
20180423172224 69 128 2.0 5.0 0.00 0.00 0.00 50 1030.4
20180423171223 70 109 2.0 5.0 0.00 0.00 0.00 51 1030.4
20180423170224 69 136 2.0 6.0 0.00 0.00 0.00 53 1030.1
20180423165223 68 124 3.0 7.0 0.00 0.00 0.00 54 1030.1
20180423164224 68 129 2.0 3.0 0.00 0.00 0.00 54 1030.1
20180423163223 67 140 2.0 5.0 0.00 0.00 0.00 56 1030.1
20180423162224 67 136 2.0 3.0 0.00 0.00 0.00 56 1030.1
20180423161225 67 119 3.0 5.0 0.00 0.00 0.00 56 1030.1
20180423160224 66 125 3.0 5.0 0.00 0.00 0.00 56 1030.4
20180423155225 66 105 2.0 3.0 0.00 0.00 0.00 57 1030.4
20180423154224 66 156 2.0 5.0 0.00 0.00 0.00 58 1030.7
20180423153224 66 138 2.0 5.0 0.00 0.00 0.00 58 1030.4
20180423152223 66 163 2.0 5.0 0.00 0.00 0.00 59 1030.4
20180423151224 65 126 2.0 3.0 0.00 0.00 0.00 61 1030.4
20180423150223 65 136 1.0 6.0 0.00 0.00 0.00 60 1030.4
20180423145225 64 108 2.0 5.0 0.00 0.00 0.00 61 1030.4
20180423144223 64 124 2.0 5.0 0.00 0.00 0.00 62 1030.1
20180423143225 63 129 2.0 5.0 0.00 0.00 0.00 63 1030.1
20180423142223 62 103 2.0 3.0 0.00 0.00 0.00 64 1030.3
20180423141223 61 125 2.0 2.0 0.00 0.00 0.00 64 1030.1
20180423140224 60 82 2.0 3.0 0.00 0.00 0.00 64 1030.1
20180423135223 59 114 1.0 2.0 0.00 0.00 0.00 66 1030.4
20180423134223 58 95 1.0 2.0 0.00 0.00 0.00 67 1030.2
20180423133224 58 96 1.0 3.0 0.00 0.00 0.00 67 1030.1
20180423132223 58 135 1.0 2.0 0.00 0.00 0.00 69 1030.1
20180423131223 57 146 2.0 2.0 0.00 0.00 0.00 71 1030.1
20180423130225 56 175 1.0 2.0 0.00 0.00 0.00 73 1030.1
20180423125223 55 88 1.0 2.0 0.00 0.00 0.00 74 1030.1
20180423124225 54 109 1.0 2.0 0.00 0.00 0.00 74 1030.4
20180423123224 54 112 1.0 2.0 0.00 0.00 0.00 73 1030.1
20180423122224 53 109 1.0 3.0 0.00 0.00 0.00 73 1030.1
20180423121223 53 135 0.0 2.0 0.00 0.00 0.00 74 1030.1
20180423120223 52 113 0.0 2.0 0.00 0.00 0.00 75 1030.1
20180423115224 51 112 0.0 0.0 0.00 0.00 0.00 76 1030.0
20180423114225 51 90 0.0 0.0 0.00 0.00 0.00 76 1029.8
20180423113225 51 112 0.0 1.0 0.00 0.00 0.00 76 1029.8
20180423112225 50 112 0.0 1.0 0.00 0.00 0.00 76 1029.8
20180423111225 50 112 1.0 1.0 0.00 0.00 0.00 77 1029.8
20180423110223 49 112 0.0 1.0 0.00 0.00 0.00 77 1029.8
20180423105227 49 68 0.0 1.0 0.00 0.00 0.00 77 1029.8
20180423104223 49 338 0.0 0.0 0.00 0.00 0.00 76 1029.8
20180423103224 48 338 0.0 0.0 0.00 0.00 0.00 75 1029.7